owner,sensor,date,latitude,longitude,sea_surface_height_above_sea_level,qcFlag 
DISL,ioos:station:DISL:CATA:1,2017-12-01T00:30:00Z,30.3085,-88.1395,2.425,1111122 
DISL,ioos:station:DISL:CATA:1,2017-12-01T01:30:00Z,30.3085,-88.1395,2.43,1111122 
DISL,ioos:station:DISL:CATA:1,2017-12-01T02:30:00Z,30.3085,-88.1395,2.45,1111122 
DISL,ioos:station:DISL:CATA:1,2017-12-01T03:30:00Z,30.3085,-88.1395,2.421,1111122 
DISL,ioos:station:DISL:CATA:1,2017-12-01T04:30:00Z,30.3085,-88.1395,2.412,1111122 
DISL,ioos:station:DISL:CATA:1,2017-12-01T05:30:00Z,30.3085,-88.1395,2.372,1111122 
DISL,ioos:station:DISL:CATA:1,2017-12-01T06:30:00Z,30.3085,-88.1395,2.288,1111122 
DISL,ioos:station:DISL:CATA:1,2017-12-01T07:30:00Z,30.3085,-88.1395,2.194,1111122 
DISL,ioos:station:DISL:CATA:1,2017-12-01T08:30:00Z,30.3085,-88.1395,2.127,1111122 
DISL,ioos:station:DISL:CATA:1,2017-12-01T09:30:00Z,30.3085,-88.1395,2.077,1111122 
DISL,ioos:station:DISL:CATA:1,2017-12-01T10:30:00Z,30.3085,-88.1395,2.043,1111122 
DISL,ioos:station:DISL:CATA:1,2017-12-01T11:30:00Z,30.3085,-88.1395,2.012,1111122 
DISL,ioos:station:DISL:CATA:1,2017-12-01T12:30:00Z,30.3085,-88.1395,2.016,1111122 
DISL,ioos:station:DISL:CATA:1,2017-12-01T13:30:00Z,30.3085,-88.1395,2.048,1111122 
DISL,ioos:station:DISL:CATA:1,2017-12-01T14:30:00Z,30.3085,-88.1395,2.082,1111122 
DISL,ioos:station:DISL:CATA:1,2017-12-01T15:30:00Z,30.3085,-88.1395,2.146,1111122 
DISL,ioos:station:DISL:CATA:1,2017-12-01T16:30:00Z,30.3085,-88.1395,2.16,1111122 
DISL,ioos:station:DISL:CATA:1,2017-12-01T17:30:00Z,30.3085,-88.1395,2.189,1111122 
DISL,ioos:station:DISL:CATA:1,2017-12-01T18:30:00Z,30.3085,-88.1395,2.213,1111122 
DISL,ioos:station:DISL:CATA:1,2017-12-01T19:30:00Z,30.3085,-88.1395,2.248,1111122 
DISL,ioos:station:DISL:CATA:1,2017-12-01T20:30:00Z,30.3085,-88.1395,2.285,1111122 
DISL,ioos:station:DISL:CATA:1,2017-12-01T21:30:00Z,30.3085,-88.1395,2.348,1111122 
DISL,ioos:station:DISL:CATA:1,2017-12-01T22:30:00Z,30.3085,-88.1395,2.405,1111122 
DISL,ioos:station:DISL:CATA:1,2017-12-01T23:30:00Z,30.3085,-88.1395,2.443,1111122 
DISL,ioos:station:DISL:CATA:1,2017-12-02T00:30:00Z,30.3085,-88.1395,2.503,1111122 
DISL,ioos:station:DISL:CATA:1,2017-12-02T01:30:00Z,30.3085,-88.1395,2.519,1111122 
DISL,ioos:station:DISL:CATA:1,2017-12-02T02:30:00Z,30.3085,-88.1395,2.506,1111122 
DISL,ioos:station:DISL:CATA:1,2017-12-02T03:30:00Z,30.3085,-88.1395,2.492,1111122 
DISL,ioos:station:DISL:CATA:1,2017-12-02T04:30:00Z,30.3085,-88.1395,2.459,1111122 
DISL,ioos:station:DISL:CATA:1,2017-12-02T05:30:00Z,30.3085,-88.1395,2.4,1111122 
DISL,ioos:station:DISL:CATA:1,2017-12-02T06:30:00Z,30.3085,-88.1395,2.338,1111122 
DISL,ioos:station:DISL:CATA:1,2017-12-02T07:00:00Z,30.3085,-88.1395,2.297,1111122 
DISL,ioos:station:DISL:CATA:1,2017-12-02T08:30:00Z,30.3085,-88.1395,2.156,1111122 
DISL,ioos:station:DISL:CATA:1,2017-12-02T09:00:00Z,30.3085,-88.1395,2.12,1111122 
DISL,ioos:station:DISL:CATA:1,2017-12-02T10:30:00Z,30.3085,-88.1395,2.031,1111122 
DISL,ioos:station:DISL:CATA:1,2017-12-02T11:00:00Z,30.3085,-88.1395,2.012,1111122 
DISL,ioos:station:DISL:CATA:1,2017-12-02T12:00:00Z,30.3085,-88.1395,1.997,1111122 
DISL,ioos:station:DISL:CATA:1,2017-12-02T13:30:00Z,30.3085,-88.1395,2.007,1111122 
DISL,ioos:station:DISL:CATA:1,2017-12-02T14:30:00Z,30.3085,-88.1395,2.023,1111122 
DISL,ioos:station:DISL:CATA:1,2017-12-02T15:30:00Z,30.3085,-88.1395,2.079,1111122 
DISL,ioos:station:DISL:CATA:1,2017-12-02T16:30:00Z,30.3085,-88.1395,2.115,1111122 
DISL,ioos:station:DISL:CATA:1,2017-12-02T17:30:00Z,30.3085,-88.1395,2.171,1111122 
DISL,ioos:station:DISL:CATA:1,2017-12-02T18:30:00Z,30.3085,-88.1395,2.217,1111122 
DISL,ioos:station:DISL:CATA:1,2017-12-02T19:30:00Z,30.3085,-88.1395,2.249,1111122 
DISL,ioos:station:DISL:CATA:1,2017-12-02T20:30:00Z,30.3085,-88.1395,2.281,1111122 
DISL,ioos:station:DISL:CATA:1,2017-12-02T21:30:00Z,30.3085,-88.1395,2.326,1111122 
DISL,ioos:station:DISL:CATA:1,2017-12-02T22:30:00Z,30.3085,-88.1395,2.397,1111122 
DISL,ioos:station:DISL:CATA:1,2017-12-02T23:30:00Z,30.3085,-88.1395,2.45,1111122 
DISL,ioos:station:DISL:CATA:1,2017-12-03T00:30:00Z,30.3085,-88.1395,2.51,1111122 
DISL,ioos:station:DISL:CATA:1,2017-12-03T01:30:00Z,30.3085,-88.1395,2.562,1111122 
DISL,ioos:station:DISL:CATA:1,2017-12-03T02:30:00Z,30.3085,-88.1395,2.576,1111122 
DISL,ioos:station:DISL:CATA:1,2017-12-03T03:30:00Z,30.3085,-88.1395,2.57,1111122 
DISL,ioos:station:DISL:CATA:1,2017-12-03T04:30:00Z,30.3085,-88.1395,2.548,1111122 
DISL,ioos:station:DISL:CATA:1,2017-12-03T05:30:00Z,30.3085,-88.1395,2.492,1111122 
DISL,ioos:station:DISL:CATA:1,2017-12-03T06:30:00Z,30.3085,-88.1395,2.421,1111122 
DISL,ioos:station:DISL:CATA:1,2017-12-03T07:30:00Z,30.3085,-88.1395,2.319,1111122 
DISL,ioos:station:DISL:CATA:1,2017-12-03T08:30:00Z,30.3085,-88.1395,2.201,1111122 
DISL,ioos:station:DISL:CATA:1,2017-12-03T09:30:00Z,30.3085,-88.1395,2.099,1111122 
DISL,ioos:station:DISL:CATA:1,2017-12-03T10:30:00Z,30.3085,-88.1395,2.025,1111122 
DISL,ioos:station:DISL:CATA:1,2017-12-03T11:30:00Z,30.3085,-88.1395,1.975,1111122 
DISL,ioos:station:DISL:CATA:1,2017-12-03T12:30:00Z,30.3085,-88.1395,1.959,1111122 
DISL,ioos:station:DISL:CATA:1,2017-12-03T13:30:00Z,30.3085,-88.1395,1.969,1111122 
DISL,ioos:station:DISL:CATA:1,2017-12-03T14:30:00Z,30.3085,-88.1395,1.978,1111122 
DISL,ioos:station:DISL:CATA:1,2017-12-03T15:30:00Z,30.3085,-88.1395,2.004,1111122 
DISL,ioos:station:DISL:CATA:1,2017-12-03T16:30:00Z,30.3085,-88.1395,2.065,1111122 
DISL,ioos:station:DISL:CATA:1,2017-12-03T17:30:00Z,30.3085,-88.1395,2.11,1111122 
DISL,ioos:station:DISL:CATA:1,2017-12-03T18:30:00Z,30.3085,-88.1395,2.164,1111122 
DISL,ioos:station:DISL:CATA:1,2017-12-03T19:30:00Z,30.3085,-88.1395,2.237,1111122 
DISL,ioos:station:DISL:CATA:1,2017-12-03T20:30:00Z,30.3085,-88.1395,2.303,1111122 
DISL,ioos:station:DISL:CATA:1,2017-12-03T21:30:00Z,30.3085,-88.1395,2.369,1111122 
DISL,ioos:station:DISL:CATA:1,2017-12-03T22:30:00Z,30.3085,-88.1395,2.415,1111122 
DISL,ioos:station:DISL:CATA:1,2017-12-03T23:30:00Z,30.3085,-88.1395,2.486,1111122 
DISL,ioos:station:DISL:CATA:1,2017-12-04T00:30:00Z,30.3085,-88.1395,2.542,1111122 
DISL,ioos:station:DISL:CATA:1,2017-12-04T01:30:00Z,30.3085,-88.1395,2.605,1111122 
DISL,ioos:station:DISL:CATA:1,2017-12-04T02:00:00Z,30.3085,-88.1395,2.63,1111122 
DISL,ioos:station:DISL:CATA:1,2017-12-04T03:30:00Z,30.3085,-88.1395,2.661,1111122 
DISL,ioos:station:DISL:CATA:1,2017-12-04T04:30:00Z,30.3085,-88.1395,2.613,1111122 
DISL,ioos:station:DISL:CATA:1,2017-12-04T05:30:00Z,30.3085,-88.1395,2.572,1111122 
DISL,ioos:station:DISL:CATA:1,2017-12-04T06:30:00Z,30.3085,-88.1395,2.515,1111122 
DISL,ioos:station:DISL:CATA:1,2017-12-04T07:30:00Z,30.3085,-88.1395,2.428,1111122 
DISL,ioos:station:DISL:CATA:1,2017-12-04T08:30:00Z,30.3085,-88.1395,2.327,1111122 
DISL,ioos:station:DISL:CATA:1,2017-12-04T09:30:00Z,30.3085,-88.1395,2.215,1111122 
DISL,ioos:station:DISL:CATA:1,2017-12-04T10:30:00Z,30.3085,-88.1395,2.108,1111122 
DISL,ioos:station:DISL:CATA:1,2017-12-04T11:30:00Z,30.3085,-88.1395,2.036,1111122 
DISL,ioos:station:DISL:CATA:1,2017-12-04T12:30:00Z,30.3085,-88.1395,1.984,1111122 
DISL,ioos:station:DISL:CATA:1,2017-12-04T13:30:00Z,30.3085,-88.1395,1.973,1111122 
DISL,ioos:station:DISL:CATA:1,2017-12-04T14:30:00Z,30.3085,-88.1395,1.972,1111122 
DISL,ioos:station:DISL:CATA:1,2017-12-04T15:30:00Z,30.3085,-88.1395,1.967,1111122 
DISL,ioos:station:DISL:CATA:1,2017-12-04T16:30:00Z,30.3085,-88.1395,1.994,1111122 
DISL,ioos:station:DISL:CATA:1,2017-12-04T17:30:00Z,30.3085,-88.1395,2.061,1111122 
DISL,ioos:station:DISL:CATA:1,2017-12-04T18:30:00Z,30.3085,-88.1395,2.114,1111122 
DISL,ioos:station:DISL:CATA:1,2017-12-04T19:30:00Z,30.3085,-88.1395,2.18,1111122 
DISL,ioos:station:DISL:CATA:1,2017-12-04T20:30:00Z,30.3085,-88.1395,2.242,1111122 
DISL,ioos:station:DISL:CATA:1,2017-12-04T21:30:00Z,30.3085,-88.1395,2.303,1111122 
DISL,ioos:station:DISL:CATA:1,2017-12-04T22:30:00Z,30.3085,-88.1395,2.382,1111122 
DISL,ioos:station:DISL:CATA:1,2017-12-04T23:30:00Z,30.3085,-88.1395,2.459,1111122 
DISL,ioos:station:DISL:CATA:1,2017-12-05T00:30:00Z,30.3085,-88.1395,2.527,1111122 
DISL,ioos:station:DISL:CATA:1,2017-12-05T01:30:00Z,30.3085,-88.1395,2.623,1111122 
DISL,ioos:station:DISL:CATA:1,2017-12-05T02:30:00Z,30.3085,-88.1395,2.693,1111122 
DISL,ioos:station:DISL:CATA:1,2017-12-05T03:30:00Z,30.3085,-88.1395,2.73,1111122 
DISL,ioos:station:DISL:CATA:1,2017-12-05T04:30:00Z,30.3085,-88.1395,2.752,1111122 
DISL,ioos:station:DISL:CATA:1,2017-12-05T05:30:00Z,30.3085,-88.1395,2.732,1111122 
DISL,ioos:station:DISL:CATA:1,2017-12-05T06:30:00Z,30.3085,-88.1395,2.691,1111122 
DISL,ioos:station:DISL:CATA:1,2017-12-05T07:30:00Z,30.3085,-88.1395,2.631,1111122 
DISL,ioos:station:DISL:CATA:1,2017-12-05T08:30:00Z,30.3085,-88.1395,2.553,1111122 
DISL,ioos:station:DISL:CATA:1,2017-12-05T09:30:00Z,30.3085,-88.1395,2.446,1111122 
DISL,ioos:station:DISL:CATA:1,2017-12-05T10:30:00Z,30.3085,-88.1395,2.335,1111122 
DISL,ioos:station:DISL:CATA:1,2017-12-05T11:30:00Z,30.3085,-88.1395,2.234,1111122 
DISL,ioos:station:DISL:CATA:1,2017-12-05T12:30:00Z,30.3085,-88.1395,2.156,1111122 
DISL,ioos:station:DISL:CATA:1,2017-12-05T13:30:00Z,30.3085,-88.1395,2.105,1111122 
DISL,ioos:station:DISL:CATA:1,2017-12-05T14:30:00Z,30.3085,-88.1395,2.059,1111122 
DISL,ioos:station:DISL:CATA:1,2017-12-05T15:30:00Z,30.3085,-88.1395,2.05,1111122 
DISL,ioos:station:DISL:CATA:1,2017-12-05T16:30:00Z,30.3085,-88.1395,2.054,1111122 
DISL,ioos:station:DISL:CATA:1,2017-12-05T17:30:00Z,30.3085,-88.1395,2.066,1111122 
DISL,ioos:station:DISL:CATA:1,2017-12-05T18:30:00Z,30.3085,-88.1395,2.118,1111122 
DISL,ioos:station:DISL:CATA:1,2017-12-05T19:30:00Z,30.3085,-88.1395,2.157,1111122 
DISL,ioos:station:DISL:CATA:1,2017-12-05T20:30:00Z,30.3085,-88.1395,2.208,1111122 
DISL,ioos:station:DISL:CATA:1,2017-12-05T21:30:00Z,30.3085,-88.1395,2.263,1111122 
DISL,ioos:station:DISL:CATA:1,2017-12-05T22:30:00Z,30.3085,-88.1395,2.334,1111122 
DISL,ioos:station:DISL:CATA:1,2017-12-05T23:30:00Z,30.3085,-88.1395,2.391,1111122 
DISL,ioos:station:DISL:CATA:1,2017-12-06T00:30:00Z,30.3085,-88.1395,2.463,1111122 
DISL,ioos:station:DISL:CATA:1,2017-12-06T01:30:00Z,30.3085,-88.1395,2.585,1111122 
DISL,ioos:station:DISL:CATA:1,2017-12-06T02:30:00Z,30.3085,-88.1395,2.606,1111122 
DISL,ioos:station:DISL:CATA:1,2017-12-06T03:30:00Z,30.3085,-88.1395,2.666,1111122 
DISL,ioos:station:DISL:CATA:1,2017-12-06T04:30:00Z,30.3085,-88.1395,2.705,1111122 
DISL,ioos:station:DISL:CATA:1,2017-12-06T05:30:00Z,30.3085,-88.1395,2.626,1111122 
DISL,ioos:station:DISL:CATA:1,2017-12-06T06:30:00Z,30.3085,-88.1395,2.606,1111122 
DISL,ioos:station:DISL:CATA:1,2017-12-06T07:30:00Z,30.3085,-88.1395,2.545,1111122 
DISL,ioos:station:DISL:CATA:1,2017-12-06T08:30:00Z,30.3085,-88.1395,2.499,1111122 
DISL,ioos:station:DISL:CATA:1,2017-12-06T09:30:00Z,30.3085,-88.1395,2.417,1111122 
DISL,ioos:station:DISL:CATA:1,2017-12-06T10:30:00Z,30.3085,-88.1395,2.284,1111122 
DISL,ioos:station:DISL:CATA:1,2017-12-06T11:30:00Z,30.3085,-88.1395,2.19,1111122 
DISL,ioos:station:DISL:CATA:1,2017-12-06T12:30:00Z,30.3085,-88.1395,2.081,1111122 
DISL,ioos:station:DISL:CATA:1,2017-12-06T13:30:00Z,30.3085,-88.1395,2.019,1111122 
DISL,ioos:station:DISL:CATA:1,2017-12-06T14:30:00Z,30.3085,-88.1395,1.984,1111122 
DISL,ioos:station:DISL:CATA:1,2017-12-06T15:30:00Z,30.3085,-88.1395,1.94,1111122 
DISL,ioos:station:DISL:CATA:1,2017-12-06T16:30:00Z,30.3085,-88.1395,1.885,1111122 
DISL,ioos:station:DISL:CATA:1,2017-12-06T17:30:00Z,30.3085,-88.1395,1.846,1111122 
DISL,ioos:station:DISL:CATA:1,2017-12-06T18:30:00Z,30.3085,-88.1395,1.798,1111122 
DISL,ioos:station:DISL:CATA:1,2017-12-06T19:30:00Z,30.3085,-88.1395,1.873,1111122 
DISL,ioos:station:DISL:CATA:1,2017-12-06T20:30:00Z,30.3085,-88.1395,1.981,1111122 
DISL,ioos:station:DISL:CATA:1,2017-12-06T21:30:00Z,30.3085,-88.1395,2.069,1111122 
DISL,ioos:station:DISL:CATA:1,2017-12-06T22:30:00Z,30.3085,-88.1395,2.16,1111122 
DISL,ioos:station:DISL:CATA:1,2017-12-06T23:30:00Z,30.3085,-88.1395,2.206,1111122 
DISL,ioos:station:DISL:CATA:1,2017-12-07T00:30:00Z,30.3085,-88.1395,2.263,1111122 
DISL,ioos:station:DISL:CATA:1,2017-12-07T01:30:00Z,30.3085,-88.1395,2.253,1111122 
DISL,ioos:station:DISL:CATA:1,2017-12-07T02:30:00Z,30.3085,-88.1395,2.267,1111122 
DISL,ioos:station:DISL:CATA:1,2017-12-07T03:30:00Z,30.3085,-88.1395,2.389,1111122 
DISL,ioos:station:DISL:CATA:1,2017-12-07T04:30:00Z,30.3085,-88.1395,2.446,1111122 
DISL,ioos:station:DISL:CATA:1,2017-12-07T05:30:00Z,30.3085,-88.1395,2.472,1111122 
DISL,ioos:station:DISL:CATA:1,2017-12-07T06:30:00Z,30.3085,-88.1395,2.47,1111122 
DISL,ioos:station:DISL:CATA:1,2017-12-07T07:30:00Z,30.3085,-88.1395,2.477,1111122 
DISL,ioos:station:DISL:CATA:1,2017-12-07T08:30:00Z,30.3085,-88.1395,2.441,1111122 
DISL,ioos:station:DISL:CATA:1,2017-12-07T09:30:00Z,30.3085,-88.1395,2.412,1111122 
DISL,ioos:station:DISL:CATA:1,2017-12-07T10:30:00Z,30.3085,-88.1395,2.345,1111122 
DISL,ioos:station:DISL:CATA:1,2017-12-07T11:30:00Z,30.3085,-88.1395,2.241,1111122 
DISL,ioos:station:DISL:CATA:1,2017-12-07T12:30:00Z,30.3085,-88.1395,2.139,1111122 
DISL,ioos:station:DISL:CATA:1,2017-12-07T13:30:00Z,30.3085,-88.1395,2.07,1111122 
DISL,ioos:station:DISL:CATA:1,2017-12-07T14:30:00Z,30.3085,-88.1395,2.005,1111122 
DISL,ioos:station:DISL:CATA:1,2017-12-07T15:30:00Z,30.3085,-88.1395,1.937,1111122 
DISL,ioos:station:DISL:CATA:1,2017-12-07T16:30:00Z,30.3085,-88.1395,1.919,1111122 
DISL,ioos:station:DISL:CATA:1,2017-12-07T17:30:00Z,30.3085,-88.1395,1.926,1111122 
DISL,ioos:station:DISL:CATA:1,2017-12-07T18:30:00Z,30.3085,-88.1395,1.966,1111122 
DISL,ioos:station:DISL:CATA:1,2017-12-07T19:30:00Z,30.3085,-88.1395,1.992,1111122 
DISL,ioos:station:DISL:CATA:1,2017-12-07T20:00:00Z,30.3085,-88.1395,1.994,1111122 
DISL,ioos:station:DISL:CATA:1,2017-12-07T22:30:00Z,30.3085,-88.1395,2.079,1111122 
DISL,ioos:station:DISL:CATA:1,2017-12-07T23:30:00Z,30.3085,-88.1395,2.088,1111122 
DISL,ioos:station:DISL:CATA:1,2017-12-08T00:30:00Z,30.3085,-88.1395,2.16,1111122 
DISL,ioos:station:DISL:CATA:1,2017-12-08T01:30:00Z,30.3085,-88.1395,2.223,1111122 
DISL,ioos:station:DISL:CATA:1,2017-12-08T02:30:00Z,30.3085,-88.1395,2.289,1111122 
DISL,ioos:station:DISL:CATA:1,2017-12-08T03:30:00Z,30.3085,-88.1395,2.357,1111122 
DISL,ioos:station:DISL:CATA:1,2017-12-08T04:30:00Z,30.3085,-88.1395,2.417,1111122 
DISL,ioos:station:DISL:CATA:1,2017-12-08T05:30:00Z,30.3085,-88.1395,2.468,1111122 
DISL,ioos:station:DISL:CATA:1,2017-12-08T06:30:00Z,30.3085,-88.1395,2.486,1111122 
DISL,ioos:station:DISL:CATA:1,2017-12-08T07:30:00Z,30.3085,-88.1395,2.468,1111122 
DISL,ioos:station:DISL:CATA:1,2017-12-08T08:30:00Z,30.3085,-88.1395,2.482,1111122 
DISL,ioos:station:DISL:CATA:1,2017-12-08T09:30:00Z,30.3085,-88.1395,2.449,1111122 
DISL,ioos:station:DISL:CATA:1,2017-12-08T10:30:00Z,30.3085,-88.1395,2.363,1111122 
DISL,ioos:station:DISL:CATA:1,2017-12-08T11:30:00Z,30.3085,-88.1395,2.315,1111122 
DISL,ioos:station:DISL:CATA:1,2017-12-08T12:30:00Z,30.3085,-88.1395,2.249,1111122 
DISL,ioos:station:DISL:CATA:1,2017-12-08T13:30:00Z,30.3085,-88.1395,2.196,1111122 
DISL,ioos:station:DISL:CATA:1,2017-12-08T14:30:00Z,30.3085,-88.1395,2.138,1111122 
DISL,ioos:station:DISL:CATA:1,2017-12-08T15:30:00Z,30.3085,-88.1395,2.047,1111122 
DISL,ioos:station:DISL:CATA:1,2017-12-08T16:30:00Z,30.3085,-88.1395,1.96,1111122 
DISL,ioos:station:DISL:CATA:1,2017-12-08T17:30:00Z,30.3085,-88.1395,1.93,1111122 
DISL,ioos:station:DISL:CATA:1,2017-12-08T18:30:00Z,30.3085,-88.1395,1.949,1111122 
DISL,ioos:station:DISL:CATA:1,2017-12-08T19:30:00Z,30.3085,-88.1395,2.027,1111122 
DISL,ioos:station:DISL:CATA:1,2017-12-08T20:30:00Z,30.3085,-88.1395,2.066,1111122 
DISL,ioos:station:DISL:CATA:1,2017-12-08T21:30:00Z,30.3085,-88.1395,2.047,1111122 
DISL,ioos:station:DISL:CATA:1,2017-12-08T22:30:00Z,30.3085,-88.1395,2.105,1111122 
DISL,ioos:station:DISL:CATA:1,2017-12-08T23:30:00Z,30.3085,-88.1395,2.134,1111122 
DISL,ioos:station:DISL:CATA:1,2017-12-09T00:30:00Z,30.3085,-88.1395,2.179,1111122 
DISL,ioos:station:DISL:CATA:1,2017-12-09T01:30:00Z,30.3085,-88.1395,2.188,1111122 
DISL,ioos:station:DISL:CATA:1,2017-12-09T02:30:00Z,30.3085,-88.1395,2.256,1111122 
DISL,ioos:station:DISL:CATA:1,2017-12-09T03:30:00Z,30.3085,-88.1395,2.318,1111122 
DISL,ioos:station:DISL:CATA:1,2017-12-09T04:30:00Z,30.3085,-88.1395,2.373,1111122 
DISL,ioos:station:DISL:CATA:1,2017-12-09T05:30:00Z,30.3085,-88.1395,2.388,1111122 
DISL,ioos:station:DISL:CATA:1,2017-12-09T06:30:00Z,30.3085,-88.1395,2.356,1111122 
DISL,ioos:station:DISL:CATA:1,2017-12-09T07:30:00Z,30.3085,-88.1395,2.366,1111122 
DISL,ioos:station:DISL:CATA:1,2017-12-09T08:30:00Z,30.3085,-88.1395,2.36,1111122 
DISL,ioos:station:DISL:CATA:1,2017-12-09T09:30:00Z,30.3085,-88.1395,2.345,1111122 
DISL,ioos:station:DISL:CATA:1,2017-12-09T10:30:00Z,30.3085,-88.1395,2.289,1111122 
DISL,ioos:station:DISL:CATA:1,2017-12-09T11:30:00Z,30.3085,-88.1395,2.222,1111122 
DISL,ioos:station:DISL:CATA:1,2017-12-09T12:30:00Z,30.3085,-88.1395,2.169,1111122 
DISL,ioos:station:DISL:CATA:1,2017-12-09T13:30:00Z,30.3085,-88.1395,2.112,1111122 
DISL,ioos:station:DISL:CATA:1,2017-12-09T14:30:00Z,30.3085,-88.1395,2.049,1111122 
DISL,ioos:station:DISL:CATA:1,2017-12-09T15:30:00Z,30.3085,-88.1395,2.013,1111122 
DISL,ioos:station:DISL:CATA:1,2017-12-09T16:30:00Z,30.3085,-88.1395,1.949,1111122 
DISL,ioos:station:DISL:CATA:1,2017-12-09T17:30:00Z,30.3085,-88.1395,1.94,1111122 
DISL,ioos:station:DISL:CATA:1,2017-12-09T18:30:00Z,30.3085,-88.1395,1.957,1111122 
DISL,ioos:station:DISL:CATA:1,2017-12-09T19:30:00Z,30.3085,-88.1395,1.955,1111122 
DISL,ioos:station:DISL:CATA:1,2017-12-09T20:30:00Z,30.3085,-88.1395,1.936,1111122 
DISL,ioos:station:DISL:CATA:1,2017-12-09T21:30:00Z,30.3085,-88.1395,1.934,1111122 
DISL,ioos:station:DISL:CATA:1,2017-12-09T22:30:00Z,30.3085,-88.1395,1.948,1111122 
DISL,ioos:station:DISL:CATA:1,2017-12-09T23:30:00Z,30.3085,-88.1395,1.995,1111122 
DISL,ioos:station:DISL:CATA:1,2017-12-10T00:30:00Z,30.3085,-88.1395,2.023,1111122 
DISL,ioos:station:DISL:CATA:1,2017-12-10T01:30:00Z,30.3085,-88.1395,2.057,1111122 
DISL,ioos:station:DISL:CATA:1,2017-12-10T02:30:00Z,30.3085,-88.1395,2.075,1111122 
DISL,ioos:station:DISL:CATA:1,2017-12-10T03:30:00Z,30.3085,-88.1395,2.064,1111122 
DISL,ioos:station:DISL:CATA:1,2017-12-10T04:30:00Z,30.3085,-88.1395,2.071,1111122 
DISL,ioos:station:DISL:CATA:1,2017-12-10T05:30:00Z,30.3085,-88.1395,2.053,1111122 
DISL,ioos:station:DISL:CATA:1,2017-12-10T06:30:00Z,30.3085,-88.1395,2.076,1111122 
DISL,ioos:station:DISL:CATA:1,2017-12-10T07:30:00Z,30.3085,-88.1395,2.088,1111122 
DISL,ioos:station:DISL:CATA:1,2017-12-10T08:00:00Z,30.3085,-88.1395,2.09,1111122 
DISL,ioos:station:DISL:CATA:1,2017-12-10T09:30:00Z,30.3085,-88.1395,2.05,1111122 
DISL,ioos:station:DISL:CATA:1,2017-12-10T10:30:00Z,30.3085,-88.1395,2.019,1111122 
DISL,ioos:station:DISL:CATA:1,2017-12-10T11:30:00Z,30.3085,-88.1395,1.989,1111122 
DISL,ioos:station:DISL:CATA:1,2017-12-10T12:30:00Z,30.3085,-88.1395,1.961,1111122 
DISL,ioos:station:DISL:CATA:1,2017-12-10T13:30:00Z,30.3085,-88.1395,1.94,1111122 
DISL,ioos:station:DISL:CATA:1,2017-12-10T14:30:00Z,30.3085,-88.1395,1.905,1111122 
DISL,ioos:station:DISL:CATA:1,2017-12-10T15:30:00Z,30.3085,-88.1395,1.862,1111122 
DISL,ioos:station:DISL:CATA:1,2017-12-10T16:30:00Z,30.3085,-88.1395,1.853,1111122 
DISL,ioos:station:DISL:CATA:1,2017-12-10T17:30:00Z,30.3085,-88.1395,1.853,1111122 
DISL,ioos:station:DISL:CATA:1,2017-12-10T18:30:00Z,30.3085,-88.1395,1.887,1111122 
DISL,ioos:station:DISL:CATA:1,2017-12-10T19:30:00Z,30.3085,-88.1395,1.913,1111122 
DISL,ioos:station:DISL:CATA:1,2017-12-10T20:30:00Z,30.3085,-88.1395,1.936,1111122 
DISL,ioos:station:DISL:CATA:1,2017-12-10T21:30:00Z,30.3085,-88.1395,1.959,1111122 
DISL,ioos:station:DISL:CATA:1,2017-12-10T22:30:00Z,30.3085,-88.1395,1.985,1111122 
DISL,ioos:station:DISL:CATA:1,2017-12-10T23:00:00Z,30.3085,-88.1395,2.023,1111122 
DISL,ioos:station:DISL:CATA:1,2017-12-11T00:30:00Z,30.3085,-88.1395,2.05,1111122 
DISL,ioos:station:DISL:CATA:1,2017-12-11T01:30:00Z,30.3085,-88.1395,2.086,1111122 
DISL,ioos:station:DISL:CATA:1,2017-12-11T02:30:00Z,30.3085,-88.1395,2.114,1111122 
DISL,ioos:station:DISL:CATA:1,2017-12-11T03:30:00Z,30.3085,-88.1395,2.121,1111122 
DISL,ioos:station:DISL:CATA:1,2017-12-11T04:30:00Z,30.3085,-88.1395,2.114,1111122 
DISL,ioos:station:DISL:CATA:1,2017-12-11T05:30:00Z,30.3085,-88.1395,2.091,1111122 
DISL,ioos:station:DISL:CATA:1,2017-12-11T06:30:00Z,30.3085,-88.1395,2.043,1111122 
DISL,ioos:station:DISL:CATA:1,2017-12-11T07:30:00Z,30.3085,-88.1395,2.016,1111122 
DISL,ioos:station:DISL:CATA:1,2017-12-11T08:30:00Z,30.3085,-88.1395,1.996,1111122 
DISL,ioos:station:DISL:CATA:1,2017-12-11T09:30:00Z,30.3085,-88.1395,1.972,1111122 
DISL,ioos:station:DISL:CATA:1,2017-12-11T10:30:00Z,30.3085,-88.1395,1.954,1111122 
DISL,ioos:station:DISL:CATA:1,2017-12-11T11:30:00Z,30.3085,-88.1395,1.924,1111122 
DISL,ioos:station:DISL:CATA:1,2017-12-11T12:30:00Z,30.3085,-88.1395,1.925,1111122 
DISL,ioos:station:DISL:CATA:1,2017-12-11T13:30:00Z,30.3085,-88.1395,1.925,1111122 
DISL,ioos:station:DISL:CATA:1,2017-12-11T14:30:00Z,30.3085,-88.1395,1.929,1111122 
DISL,ioos:station:DISL:CATA:1,2017-12-11T15:30:00Z,30.3085,-88.1395,1.931,1111122 
DISL,ioos:station:DISL:CATA:1,2017-12-11T16:30:00Z,30.3085,-88.1395,1.919,1111122 
DISL,ioos:station:DISL:CATA:1,2017-12-11T17:30:00Z,30.3085,-88.1395,1.918,1111122 
DISL,ioos:station:DISL:CATA:1,2017-12-11T18:30:00Z,30.3085,-88.1395,1.929,1111122 
DISL,ioos:station:DISL:CATA:1,2017-12-11T19:30:00Z,30.3085,-88.1395,1.962,1111122 
DISL,ioos:station:DISL:CATA:1,2017-12-11T20:30:00Z,30.3085,-88.1395,2.006,1111122 
DISL,ioos:station:DISL:CATA:1,2017-12-11T21:30:00Z,30.3085,-88.1395,2.031,1111122 
DISL,ioos:station:DISL:CATA:1,2017-12-11T22:30:00Z,30.3085,-88.1395,2.064,1111122 
DISL,ioos:station:DISL:CATA:1,2017-12-11T23:30:00Z,30.3085,-88.1395,2.101,1111122 
DISL,ioos:station:DISL:CATA:1,2017-12-12T00:30:00Z,30.3085,-88.1395,2.139,1111122 
DISL,ioos:station:DISL:CATA:1,2017-12-12T01:30:00Z,30.3085,-88.1395,2.166,1111122 
DISL,ioos:station:DISL:CATA:1,2017-12-12T02:30:00Z,30.3085,-88.1395,2.205,1111122 
DISL,ioos:station:DISL:CATA:1,2017-12-12T03:30:00Z,30.3085,-88.1395,2.214,1111122 
DISL,ioos:station:DISL:CATA:1,2017-12-12T04:30:00Z,30.3085,-88.1395,2.199,1111122 
DISL,ioos:station:DISL:CATA:1,2017-12-12T05:30:00Z,30.3085,-88.1395,2.181,1111122 
DISL,ioos:station:DISL:CATA:1,2017-12-12T06:30:00Z,30.3085,-88.1395,2.166,1111122 
DISL,ioos:station:DISL:CATA:1,2017-12-12T07:30:00Z,30.3085,-88.1395,2.136,1111122 
DISL,ioos:station:DISL:CATA:1,2017-12-12T08:30:00Z,30.3085,-88.1395,2.094,1111122 
DISL,ioos:station:DISL:CATA:1,2017-12-12T09:30:00Z,30.3085,-88.1395,2.089,1111122 
DISL,ioos:station:DISL:CATA:1,2017-12-12T10:30:00Z,30.3085,-88.1395,2.092,1111122 
DISL,ioos:station:DISL:CATA:1,2017-12-12T11:30:00Z,30.3085,-88.1395,2.083,1111122 
DISL,ioos:station:DISL:CATA:1,2017-12-12T12:30:00Z,30.3085,-88.1395,2.071,1111122 
DISL,ioos:station:DISL:CATA:1,2017-12-12T13:30:00Z,30.3085,-88.1395,2.043,1111122 
DISL,ioos:station:DISL:CATA:1,2017-12-12T14:30:00Z,30.3085,-88.1395,2.013,1111122 
DISL,ioos:station:DISL:CATA:1,2017-12-12T15:30:00Z,30.3085,-88.1395,1.991,1111122 
DISL,ioos:station:DISL:CATA:1,2017-12-12T16:30:00Z,30.3085,-88.1395,1.937,1111122 
DISL,ioos:station:DISL:CATA:1,2017-12-12T17:30:00Z,30.3085,-88.1395,1.91,1111122 
DISL,ioos:station:DISL:CATA:1,2017-12-12T18:30:00Z,30.3085,-88.1395,1.934,1111122 
DISL,ioos:station:DISL:CATA:1,2017-12-12T19:30:00Z,30.3085,-88.1395,1.983,1111122 
DISL,ioos:station:DISL:CATA:1,2017-12-12T20:30:00Z,30.3085,-88.1395,2.03,1111122 
DISL,ioos:station:DISL:CATA:1,2017-12-12T21:30:00Z,30.3085,-88.1395,2.068,1111122 
DISL,ioos:station:DISL:CATA:1,2017-12-12T22:30:00Z,30.3085,-88.1395,2.09,1111122 
DISL,ioos:station:DISL:CATA:1,2017-12-13T09:30:00Z,30.3085,-88.1395,1.86,1111122 
DISL,ioos:station:DISL:CATA:1,2017-12-13T10:30:00Z,30.3085,-88.1395,1.867,1111122 